This is the latest recevied weather packets stored in our database for station/object DL1NER. If no packets are shown the sender has not sent any weather packets the latest 10 day(s).
| Time | Temp. | Humidity | Pressure | Rain* | Wind** | Luminosity | Snow |
|---|---|---|---|---|---|---|---|
| 1777460413 | 16.67° C | 31% | 1023.9 hPa | 0 mm | - | 0 W/m² | - |
| 1777459813 | 16.67° C | 27% | 1023.9 hPa | 0 mm | - | 0 W/m² | - |
| 1777459213 | 16.67° C | 28% | 1024 hPa | 0 mm | - | 0 W/m² | - |
| 1777458613 | 16.11° C | 29% | 1024 hPa | 0 mm | - | 0 W/m² | - |
| 1777458013 | 16.67° C | 28% | 1024 hPa | 0 mm | - | 0 W/m² | - |
| 1777457413 | 16.11° C | 29% | 1023.9 hPa | 0 mm | - | 0 W/m² | - |
| 1777456813 | 15.56° C | 32% | 1024 hPa | 0 mm | - | 0 W/m² | - |
| 1777456213 | 15.56° C | 32% | 1024.1 hPa | 0 mm | - | 0 W/m² | - |
| 1777455613 | 16.11° C | 33% | 1024 hPa | 0 mm | - | 0 W/m² | - |
| 1777455013 | 16.11° C | 32% | 1023.9 hPa | 0 mm | - | 0 W/m² | - |
| 1777454413 | 15.56° C | 31% | 1023.9 hPa | 0 mm | - | 0 W/m² | - |
| 1777453813 | 15° C | 30% | 1023.8 hPa | 0 mm | - | 0 W/m² | - |
| 1777453213 | 15° C | 30% | 1024 hPa | 0 mm | - | 0 W/m² | - |
| 1777452613 | 14.44° C | 32% | 1023.8 hPa | 0 mm | - | 0 W/m² | - |
| 1777452013 | 14.44° C | 31% | 1023.9 hPa | 0 mm | - | 0 W/m² | - |
| 1777451413 | 13.89° C | 32% | 1023.9 hPa | 0 mm | - | 0 W/m² | - |
| 1777450812 | 13.89° C | 31% | 1023.9 hPa | 0 mm | - | 0 W/m² | - |
| 1777450213 | 13.89° C | 31% | 1023.9 hPa | 0 mm | - | 0 W/m² | - |
| 1777449613 | 13.89° C | 34% | 1023.9 hPa | 0 mm | - | 0 W/m² | - |
| 1777449013 | 13.33° C | 33% | 1023.8 hPa | 0 mm | - | 0 W/m² | - |
| 1777448412 | 12.78° C | 35% | 1023.8 hPa | 0 mm | - | 0 W/m² | - |
| 1777447813 | 12.22° C | 36% | 1023.7 hPa | 0 mm | - | 0 W/m² | - |
| 1777447212 | 11.67° C | 35% | 1023.5 hPa | 0 mm | - | 0 W/m² | - |
| 1777446612 | 11.67° C | 36% | 1023.7 hPa | 0 mm | - | 0 W/m² | - |
| 1777446012 | 11.11° C | 39% | 1023.7 hPa | 0 mm | - | 0 W/m² | - |
* Rain latest hour (hover to see other rain measurements)
** Current wind speed in m/s (hover to see current wind gust speed)